Regional Weather Roundup
Issued by NWS Jackson, KY

Home | Current Version | Previous Version | Graphics & Text | Print | Product List | Glossary On
Versions: 1 2 3 4 5 6 7 8 9 10 11 12 13 14 15 16 17 18 19 20 21 22 23 24 25 26 27 28 29 30 31 32 33 34 35 36 37 38 39 40 41 42 43 44 45 46 47 48 49 50
000
ASUS43 KJKL 222210
RWRJKL

EAST KENTUCKY HOURLY WEATHER ROUNDUP
NATIONAL WEATHER SERVICE JACKSON KY
500 PM EST WED NOV 22 2017

NOTE: "FAIR" INDICATES FEW OR NO CLOUDS BELOW 12,000 FEET WITH
NO SIGNIFICANT WEATHER AND/OR OBSTRUCTIONS TO VISIBILITY.

* THESE REPORTS ARE NOT UNDER NWS QUALITY CONTROL AND MAY NOT
  REPORT WEATHER SUCH AS PRECIPITATION AND FOG.

KYZ079-080-083-085-087-088-110-112-115-119-120-222300
...EASTERN KENTUCKY...

CITY           SKY/WX    TMP DP  RH WIND       PRES   REMARKS
JACKSON        CLEAR     40  24  53 VRB5      30.20R
LONDON         CLEAR     43  24  47 N8        30.19S
SOMERSET*      CLEAR     41  25  52 N9        30.22F
MONTICELLO*    CLEAR     43  26  51 N17       30.22F
WILLIAMSBURG*  CLEAR     41  25  52 NE7       30.19S
MIDDLESBORO*   CLEAR     45  26  48 N7        30.17S
HARLAN APT*    CLEAR     43  25  49 NW6       30.17R
PIKE CO APT*     N/A     39  26  59 N5        30.19S
BIG SANDY APT* CLEAR     39  25  57 N5        30.22R
MOREHEAD APT*  PTCLDY    37  23  56 NW9       30.26S WCI  31
$$

KYZ035-036-041-042-044-050-067-078-099-222300
...CENTRAL KENTUCKY...

CITY           SKY/WX    TMP DP  RH WIND       PRES   REMARKS
MT STERLING*   CLEAR     37  27  65 NE7       30.26R WCI  32
FLEMING/MASON* PTCLDY    35  22  59 CALM      30.28S
DANVILLE*      CLEAR     37  25  60 N7        30.25S WCI  32
LEXINGTON      CLEAR     40  23  50 N6        30.24S
FRANKFORT      CLEAR     42  21  43 N6        30.24S
LOUISVILLE     PTCLDY    41  24  51 N5        30.26F
LEBANON*         N/A     39  25  56 N7        30.24S WCI  34
GLASGOW*       CLEAR     42  23  47 NE6       30.23S
BOWLING GREEN  CLEAR     44  24  45 N6        30.24F
$$

KYZ091>093-OHZ055-061-077-WVZ005-015-034-035-042-222300
...SOUTHERN OHIO/WEST VIRGINIA...

CITY           SKY/WX    TMP DP  RH WIND       PRES   REMARKS
COVINGTON      PTCLDY    37  25  61 NE6       30.26S WCI  32
COLUMBUS       CLOUDY    33  21  61 NW8       30.27R WCI  26
DAYTON         CLOUDY    34  24  67 NW9       30.27S WCI  27
WILMINGTON     CLEAR     33  24  69 N5        30.25S WCI  29
HUNTINGTON     CLEAR     38  23  55 N8        30.24R WCI  32
CHARLESTON     CLOUDY    39  24  55 NW6       30.22S WCI  35
PINEVILLE*     CLEAR     39  25  58 MISG      30.22R
BECKLEY        CLOUDY    34  22  61 N9        30.15R WCI  27
BLUEFIELD      CLEAR     37  22  54 N7        30.13R WCI  32
LOGAN CO APT*  MOCLDY    37  25  60 CALM      30.19S
$$

VAZ002-007-008-TNZ017-027-036-066-071-222300
...SOUTHWEST VIRGINIA/EAST TENNESSEE...

CITY           SKY/WX    TMP DP  RH WIND       PRES   REMARKS
WISE*          CLEAR     37  28  70 N8        30.15S WCI  31
JONESVILLE*      N/A     46  27  46 NW5       30.17S
ABINGDON*      CLEAR     46  26  47 N5        30.13R
BRISTOL        PTCLDY    48  30  49 N6        30.12S
MORRISTOWN*    CLEAR     50  30  46 N6        30.12F
SEVIERVILLE*   CLEAR     52  30  43 N5        30.12S
LAFOLLETTE*    CLEAR     45  25  45 NE7       30.20R
OAK RIDGE      CLEAR     49  27  42 VRB5      30.16R
CROSSVILLE     CLEAR     44  24  45 N9        30.14F
NASHVILLE      PTCLDY    45  23  42 N10       30.22R
$$

...KEY TO REMARKS...
VSB - VISIBILITY IN MILES
WCI - WIND CHILL INDEX
HX  - HEAT INDEX

$$



USA.gov is the U.S. government's official web portal to all federal, state and local government web resources and services.